YAOGAN-24 (40310 NORAD) Tracking and Keplerian Element Data

This shows tracking and keplerian element data for the satellite.

Feedback or suggestion? Click here.




ElementValue
Catalog40310
NameYAOGAN-24
Epoch Orbit55029
Epoch Day35.34761534
Epoch Year2025
RAAN165.5926
Inclination98.0785
Eccentricity0.0012629
Argument of Perigee68.8153
Mean Anonmoly291.4405
Mean Motion14.76336279
Decay Rate2.303E-05
L11 40310U 14072A 25035.34761534 .00002303 00000+0 33895-3 0 9998
L22 40310 98.0785 165.5926 0012629 68.8153 291.4405 14.76336279550296



Live tracking and technical data element details for YAOGAN-24 (NORAD 40310). YAOGAN-24 can be tracked NOW for your location showing map with azimuth and elevation plus other details from your city location.







IsCatalogInMostPopularTable: catalog: 40310, numindb: 571
Update: records affected: 1



GetName: 40310 YAOGAN-24

Hit Count: updated at: Fri, 16 May 2025 10:45:49 GMT